Birmingham, United Kingdom

1:22 AM BST on July 28, 2017 (GMT +0100)
Birmingham

Weather History for EGBB - October, 2012

Change the Weather History Date:

Sunday, October 21, 2012

  Actual Average Record
Temperature  
Mean Temperature 45 °F -  
Max Temperature 53 °F 51 °F 62 °F (1998)
Min Temperature 37 °F 39 °F 30 °F (2003)
Degree Days  
Heating Degree Days 20    
Moisture  
Dew Point 44 °F    
Average Humidity 95    
Maximum Humidity 100    
Minimum Humidity 77    
Precipitation  
Precipitation 0.00 in 0.07 in - ()
Sea Level Pressure  
Sea Level Pressure 30.10 in    
Wind  
Wind Speed 3 mph ()    
Max Wind Speed 9 mph    
Max Gust Speed -    
Visibility 2.7 miles    
Events Fog , Rain    
Averages and records for this station are not official NWS values.
T = Trace of Precipitation, MM = Missing Value Source: Averaged Metar Reports

Daily Weather History Graph

Daily Weather History Graph

Search for Another Location

Airport or City:

Trip Planner

Search our weather history database for the weather conditions in past years. The results will help you decide how hot, cold, wet, or windy it might be!

Date:

Astronomy

Oct. 21, 2012 Rise Set
Actual Time 7:43 AM BST 5:58 PM BST
Civil Twilight 7:08 AM BST 6:33 PM BST
Nautical Twilight 6:28 AM BST 7:12 PM BST
Astronomical Twilight 5:49 AM BST 7:52 PM BST
Moon 2:11 PM BST (10/21) 11:21 PM BST (10/21)
Length of Visible Light 11h 24m
Length of Day
10h 14m
Waxing Crescent, 42% of the Moon is Illuminated
Oct 21
Waxing Crescent
Oct 22
First Quarter
Oct 29
Full
Nov 7
Last Quarter
Nov 13
New

Hourly Weather History & Observations

Time (BST) Temp. Windchill Dew Point Humidity Pressure Visibility Wind Dir Wind Speed Gust Speed Precip Events Conditions
12:20 AM 42.8 °F 41.1 °F 42.8 °F 100% 30.06 in 6.2 mi South 3.5 mph - N/A Fog Shallow Fog
12:50 AM 41.0 °F - 39.2 °F 93% 30.06 in 0.5 mi Calm Calm - N/A Fog Fog
1:20 AM 41.0 °F - 41.0 °F 100% 30.06 in 0.6 mi Calm Calm - N/A Fog Fog
1:50 AM 37.4 °F - 37.4 °F 100% 30.06 in 0.1 mi Calm Calm - N/A Fog Fog
2:20 AM 37.4 °F - 37.4 °F 100% 30.06 in 0.1 mi Calm Calm - N/A Fog Fog
2:50 AM 37.4 °F - 37.4 °F 100% 30.06 in 0.1 mi Calm Calm - N/A Fog Fog
3:20 AM 37.4 °F - 37.4 °F 100% 30.06 in 0.2 mi Calm Calm - N/A Fog Fog
3:50 AM 37.4 °F - 37.4 °F 100% 30.06 in 0.1 mi Calm Calm - N/A Fog Fog
4:20 AM 37.4 °F - 37.4 °F 100% 30.06 in 0.1 mi Calm Calm - N/A   Unknown
4:50 AM 37.4 °F - 37.4 °F 100% 30.06 in 0.1 mi Calm Calm - N/A   Unknown
5:20 AM 39.2 °F - 39.2 °F 100% 30.09 in 0.1 mi Calm Calm - N/A Fog Fog
5:50 AM 39.2 °F - 39.2 °F 100% 30.09 in 0.1 mi Calm Calm - N/A Fog Fog
6:20 AM 39.2 °F - 39.2 °F 100% 30.09 in 0.4 mi Calm Calm - N/A Fog Fog
6:50 AM 41.0 °F - 41.0 °F 100% 30.09 in 0.1 mi Calm Calm - N/A Fog Fog
7:20 AM 41.0 °F - 41.0 °F 100% 30.09 in 0.1 mi Calm Calm - N/A Fog Fog
7:50 AM 41.0 °F - 41.0 °F 100% 30.12 in 0.1 mi NE 2.3 mph - N/A Fog Fog
8:20 AM 41.0 °F 39.0 °F 41.0 °F 100% 30.12 in 0.1 mi NNE 3.5 mph - N/A Fog Fog
8:50 AM 41.0 °F 39.0 °F 41.0 °F 100% 30.12 in 0.1 mi NNE 3.5 mph - N/A Fog Fog
9:20 AM 41.0 °F 39.0 °F 41.0 °F 100% 30.12 in 0.1 mi NNE 3.5 mph - N/A Fog Fog
9:50 AM 41.0 °F 39.0 °F 41.0 °F 100% 30.12 in 0.1 mi North 3.5 mph - N/A Fog Fog
10:20 AM 42.8 °F 40.1 °F 42.8 °F 100% 30.12 in 0.1 mi North 4.6 mph - N/A Fog Fog
10:50 AM 44.6 °F 42.2 °F 44.6 °F 100% 30.12 in 0.1 mi NNE 4.6 mph - N/A Fog Fog
11:20 AM 44.6 °F 42.2 °F 44.6 °F 100% 30.12 in 0.1 mi North 4.6 mph - N/A Fog Fog
11:50 AM 46.4 °F 43.5 °F 46.4 °F 100% 30.12 in 1.2 mi North 5.8 mph - N/A   Partly Cloudy
12:20 PM 48.2 °F - 46.4 °F 93% 30.12 in 1.2 mi NNE 5.8 mph - N/A   Partly Cloudy
12:50 PM 48.2 °F - 48.2 °F 100% 30.12 in 3.1 mi North 4.6 mph - N/A   Partly Cloudy
1:20 PM 48.2 °F - 48.2 °F 100% 30.12 in 3.7 mi North 5.8 mph - N/A   Partly Cloudy
1:50 PM 50.0 °F - 50.0 °F 100% 30.09 in 4.3 mi North 6.9 mph - N/A   Partly Cloudy
2:20 PM 50.0 °F - 48.2 °F 94% 30.09 in 5.0 mi North 5.8 mph - N/A   Partly Cloudy
2:50 PM 51.8 °F - 50.0 °F 94% 30.09 in 6.2 mi NNE 5.8 mph - N/A   Scattered Clouds
3:20 PM 53.6 °F - 46.4 °F 77% 30.09 in 6.2 mi NE 9.2 mph - N/A   Mostly Cloudy
3:50 PM 53.6 °F - 48.2 °F 82% 30.09 in 6.2 mi NE 8.1 mph - N/A   Mostly Cloudy
4:20 PM 53.6 °F - 48.2 °F 82% 30.09 in 6.2 mi NE 6.9 mph - N/A   Mostly Cloudy
4:50 PM 53.6 °F - 48.2 °F 82% 30.09 in 6.2 mi ENE 8.1 mph - N/A   Mostly Cloudy
5:20 PM 51.8 °F - 48.2 °F 88% 30.09 in 6.2 mi NE 6.9 mph - N/A   Mostly Cloudy
5:50 PM 51.8 °F - 48.2 °F 88% 30.09 in 6.2 mi NE 8.1 mph - N/A   Mostly Cloudy
6:20 PM 51.8 °F - 48.2 °F 88% 30.09 in 6.2 mi NE 5.8 mph - N/A   Mostly Cloudy
6:50 PM 51.8 °F - 48.2 °F 88% 30.12 in 6.2 mi NE 8.1 mph - N/A Rain Light Rain
7:20 PM 51.8 °F - 48.2 °F 88% 30.12 in 6.2 mi NE 8.1 mph - N/A   Mostly Cloudy
7:50 PM 51.8 °F - 48.2 °F 88% 30.12 in 6.2 mi NE 9.2 mph - N/A   Mostly Cloudy
8:20 PM 51.8 °F - 48.2 °F 88% 30.12 in 6.2 mi NE 8.1 mph - N/A   Mostly Cloudy
8:50 PM 51.8 °F - 48.2 °F 88% 30.12 in 6.2 mi NE 9.2 mph - N/A   Mostly Cloudy
9:20 PM 51.8 °F - 48.2 °F 88% 30.12 in 6.2 mi NE 8.1 mph - N/A   Mostly Cloudy
9:50 PM 50.0 °F - 48.2 °F 94% 30.12 in 3.1 mi NE 8.1 mph - N/A   Mostly Cloudy
10:20 PM 50.0 °F - 48.2 °F 94% 30.12 in - NE 6.9 mph - N/A   Light Drizzle
10:50 PM 50.0 °F - 48.2 °F 94% 30.12 in 3.1 mi NE 8.1 mph - N/A Rain Light Rain
11:20 PM 50.0 °F - 48.2 °F 94% 30.09 in 3.7 mi NE 8.1 mph - N/A   Mostly Cloudy
11:50 PM 50.0 °F - 48.2 °F 94% 30.09 in 4.3 mi NE 8.1 mph - N/A   Mostly Cloudy